Effective Sunday, March 17, 2024, the National Weather Service National Data Buoy Center will discontinue its Dial-A-Buoy Interactive Voice Response system. For more information, see Service Change Notice 24-06 (PDF).

Station CDEA2 - Cape Decision, AK Image indicating link to RSS feed of recent meteorological observations for station CDEA2


Conditions at CDEA2 as of
(4:22 pm AKST on 02/29/2024)
0122 GMT on 03/01/2024:
     

Click on the graph icon in the table below to see a time series plot of the last five days of that observation.

5-day plot - Wind Direction Wind Direction (WDIR):ENE ( 70 deg true )
5-day plot - Wind Speed Wind Speed (WSPD): 7.0 kts
5-day plot - Wind Gust Wind Gust (GST): 22.0 kts
5-day plot - Atmospheric Pressure Atmospheric Pressure (PRES):29.26 in
5-day plot - Air Temperature Air Temperature (ATMP): 35.6 °F
5-day plot - Dew Point Dew Point (DEWP): 26.2 °F
5-day plot - Wind Chill Wind Chill (CHILL): 29.1 °F
5-day plot - Wind Speed at 10 Meters Wind Speed at 10 meters (WSPD10M): 7.8 kts
5-day plot - Wind Speed at 20 Meters Wind Speed at 20 meters (WSPD20M): 7.8 kts
5-day plot -  Wind Speed, Wind Gust and Atmospheric Pressure Combined plot of Wind Speed, Gust, and Air Pressure
Previous observations
TIME
(AKST)
5-day plot - Wind Direction
WDIR
 
5-day plot - Wind Speed
WSPD
kts
5-day plot - Wind Gust
GST
kts
5-day plot - Wave Height
WVHT
ft
5-day plot - Dominant Wave Period
DPD
sec
5-day plot - Average Wave Period
APD
sec
5-day plot - Mean Wave Direction
MWD
 
5-day plot - Atmospheric Pressure
PRES
in
5-day plot - Pressure Tendency
PTDY
in
5-day plot - Air Temperature
ATMP
°F
5-day plot - Water Temperature
WTMP
°F
5-day plot - Dew Point
DEWP
°F
5-day plot - Salinity
SAL
psu
5-day plot - Visibility
VIS
nmi
5-day plot - Tide (above MLLW)
TIDE
ft
2024-02-29 03:22 pmENE 14.0 27.0----29.23- 37.0- 25.7---
2024-02-29 01:22 pm E 14.0 25.1----29.22- 36.5- 25.9---
2024-02-29 12:22 pm E 17.1 24.1----29.21- 37.0- 25.2---
2024-02-29 11:22 am E 20.0 28.9----29.20- 36.5- 25.9---
2024-02-29 10:22 am E 21.0 26.0----29.19- 35.8- 24.8---
2024-02-29 09:22 am E 22.0 26.0----29.18- 35.6- 25.0---
2024-02-29 08:22 am E 25.1 31.1----29.17- 35.8- 25.5---
2024-02-29 07:22 am E 24.1 28.9----29.16- 34.7- 25.2---
2024-02-29 06:22 am E 24.1 26.0----29.15- 34.5- 25.9---
2024-02-29 05:22 am E 22.0 26.0----29.15- 34.7- 26.2---
2024-02-29 04:22 am E 21.0 25.1----29.14- 34.9- 27.1---
2024-02-29 03:22 am E 21.0 25.1----29.14- 35.2- 27.5---
2024-02-29 02:22 am E 21.0 25.1----29.14- 35.2- 27.5---
2024-02-29 01:22 am E 19.0 24.1----29.13- 35.6- 27.0---
2024-02-29 12:22 am E 18.1 22.0----29.13- 35.4- 28.2---
2024-02-28 11:22 pm E 20.0 22.9----29.13- 35.6- 29.1---
2024-02-28 10:22 pm E 22.0 24.1----29.13- 36.0- 28.8---
2024-02-28 09:22 pm E 20.0 24.1----29.13- 36.0- 28.9---
2024-02-28 08:22 pm E 20.0 24.1----29.13- 36.3- 28.4---
2024-02-28 07:22 pm E 18.1 24.1----29.12- 36.3- 29.5---
2024-02-28 06:22 pm E 21.0 24.1----29.13- 36.1- 29.1---
2024-02-28 05:22 pmESE 15.9 19.0----29.13- 36.3- 26.6---